Hourly Data Report for December 19, 2019

EUREKA CLIMATE
NUNAVUT
Current Station Operator: ECCC - MSC

79°59'21.000" N
85°56'02.000" W
10.00 m
2401199
71613
NEK

Download Data

Hourly Data (December 2019)
Hourly Data Report for December 19, 2019
TIME
LST
Temp Definition
°C
Dew Point Definition
°C
Rel Hum Definition
%
Precip. Amount Definition
mm

Wind Dir Definition
10's deg

Wind Spd Definition
km/h
Visibility Definition
km
Stn Press Definition
kPa
Hmdx Definition


Wind Chill Definition


Weather Definition


00:00 -33.3 -36.6 72 0.0 3 3   102.06   -37 LegendNANA
01:00 -32.4 -35.6 74 0.0 10 2   102.00   -35 LegendNANA
02:00 -32.7 -35.9 73 0.0 10 11   101.95   -43 LegendNANA
03:00 -32.6 -35.7 74 0.0 6 4   101.89   -37 LegendNANA
04:00 -32.1 -35.2 74 0.0 8 8   101.83   -40 LegendNANA
05:00 -31.7 -34.7 75 0.0 8 5   101.77   -38 LegendNANA
06:00 -31.7 -34.7 75 0.0 9 2   101.71   -34 LegendNANA
07:00 -31.9 -34.9 74 0.0 11 5   101.66   -38 LegendNANA
08:00 -31.5 -34.5 75 0.0 11 5   101.58   -37 LegendNANA
09:00 -30.9 -33.9 75 0.0 10 5   101.54   -37 LegendNANA
10:00 -31.0 -34.0 75 0.0 12 6   101.50   -38 LegendNANA
11:00 -31.1 -34.1 75 0.0 3 9   101.45   -40 LegendNANA
12:00 -30.1 -33.0 76 0.0 15 6   101.39   -37 LegendNANA
13:00 -31.3 -34.3 74 0.0 10 9   101.39   -40 LegendNANA
14:00 -31.3 -34.4 74 0.0 9 2   101.33   -34 LegendNANA
15:00 -30.9 -33.9 75 0.0 11 2   101.29   -33 LegendNANA
16:00 -30.9 -34.0 75 0.0 11 7   101.28   -38 LegendNANA
17:00 -30.0 -33.0 76 0.0 6 4   101.24   -35 LegendNANA
18:00 -31.0 -34.0 74 0.0 12 8   101.20   -39 LegendNANA
19:00 -30.9 -34.0 74 0.0 11 5   101.19   -37 LegendNANA
20:00 -30.2 -33.0 76 0.0 8 7   101.15   -38 LegendNANA
21:00 -30.2 -33.1 76 0.0 5 7   101.14   -38 LegendNANA
22:00 -29.7 -32.7 75 0.0 11 5   101.11   -35 LegendNANA
23:00 -29.0 -31.9 76 0.0 11 11   101.09   -38 LegendNANA

Notes on Data Quality.

Legend

  • E = Estimated
  • M = Missing
  • NA = Not Available*
  • [empty] = Indicates an unobserved value
Date modified: